Погода в Благовещенье

Россия / Вологодская область     60°43′47″N   46°06′05″E
темп.,
°C
ветер,
м/с
пор.,
м/с
влажн.,
%
обл.,
%
осадки,
мм/ч
давл.,
гПа
погр.,
м
18 апреля, вс
вс1800:00+2сз28885 0.0 1027154
03:00+2ссв399074 0.0 1028357
06:00+2св488485 0.0 1030647
09:00+2всв46505 0.0 10321020
12:00+5всв46405 0.0 10331479
15:00+5всв46395 0.0 10331661
18:00+4всв37495 0.0 1034533
21:000всв28695 0.0 1035182
19 апреля, пн
пн1900:00−2всв29752 0.0 1036203
03:00−2в26750 0.0 1037149
06:00−1в24685 0.0 1037187
09:00+4в34435 0.0 10381251
12:00+6вюв343617 0.0 10371613
15:00+7в3436100 0.0 10351661
18:00+5в245333 0.0 103591
21:000вюв22650 0.0 103616
20 апреля, вт
вт2000:00−1юв22700 0.0 103717
03:00−2ююв11720 0.0 103711
06:000юв13650 0.0 1037108
09:00+5юв23400 0.0 1036769
12:00+8юв34350 0.0 10341308
15:00+9ююв34330 0.0 10331411
18:00+7юв24500 0.0 103194
21:00+2ююв26660 0.0 1032106
21 апреля, ср
ср2100:000юв26710 0.0 1031115
03:00−1вюв39760 0.0 1030183
06:00+1вюв4136319 0.0 1029444
09:00+7юв61343100 0.0 10261012
12:00+10юв71538100 0.0 10231278
15:00+12юв7143699 0.0 10221426
18:00+9ююв61442100 0.0 10211548
21:00+8ююв71650100 0.0 10201234
22 апреля, чт
чт2200:00+6ююв61470100 0.0 10191040
03:00+5ююв61383100 0.0 1018955
06:00+5ююв51386100 0.0 1018931
09:00+6ю61282100 0.0 10191071
12:00+8ю61275100 0.1 10201556
15:00+9ю61265100 0.3 10211673
18:00+9ююз6126891 0.0 10221265
21:00+7ююз41175100 0.1 1023983